• In Österreich
  • Länderverzeichnis
  • Für 7 Tage
  • Wassertemperatur
  • Satellitenkarten
  • Wetterkarte
  • News
  • Widgets
  • user-avatar
    Anmelden

    Stündliche Wetter Tshikapa

    Heute, 18 Juni, Montag

    Zeit Temperatur Niederschläge Wind Luftdruck Luftfeuchtigkeit
    00:00 +25°C° 0 mm 1 m/S 718 mmHg 34%
    01:00 +25°C° 0 mm 1 m/S 717 mmHg 35%
    02:00 +24°C° 0 mm 1 m/S 717 mmHg 36%
    03:00 +24°C° 0 mm 1 m/S 717 mmHg 37%
    04:00 +23°C° 0 mm 1 m/S 717 mmHg 39%
    05:00 +24°C° 0 mm 1 m/S 717 mmHg 38%
    06:00 +24°C° 0 mm 1 m/S 718 mmHg 37%
    07:00 +25°C° 0 mm 2 m/S 718 mmHg 36%
    08:00 +28°C° 0 mm 2 m/S 718 mmHg 30%
    09:00 +32°C° 0 mm 2 m/S 718 mmHg 25%
    10:00 +36°C° 0 mm 3 m/S 719 mmHg 20%
    11:00 +37°C° 0 mm 3 m/S 718 mmHg 18%
    12:00 +38°C° 0 mm 2 m/S 717 mmHg 16%
    13:00 +40°C° 0 mm 2 m/S 717 mmHg 14%
    14:00 +39°C° 0 mm 2 m/S 716 mmHg 14%
    15:00 +39°C° 0 mm 2 m/S 716 mmHg 14%
    16:00 +39°C° 0 mm 2 m/S 715 mmHg 14%
    17:00 +35°C° 0 mm 1 m/S 715 mmHg 18%
    18:00 +32°C° 0 mm 1 m/S 716 mmHg 21%
    19:00 +29°C° 0 mm 1 m/S 716 mmHg 25%
    20:00 +28°C° 0 mm 1 m/S 716 mmHg 26%
    21:00 +27°C° 0 mm 1 m/S 717 mmHg 27%
    22:00 +27°C° 0 mm 1 m/S 717 mmHg 28%
    23:00 +26°C° 0 mm 1 m/S 717 mmHg 29%

    Morgen, 19 Juni, Dienstag

    Zeit Temperatur Niederschläge Wind Luftdruck Luftfeuchtigkeit
    00:00 +26°C° 0 mm 1 m/S 717 mmHg 30%
    01:00 +25°C° 0 mm 1 m/S 716 mmHg 31%
    02:00 +25°C° 0 mm 1 m/S 716 mmHg 32%
    03:00 +24°C° 0 mm 1 m/S 716 mmHg 33%
    04:00 +24°C° 0 mm 1 m/S 716 mmHg 34%
    05:00 +24°C° 0 mm 1 m/S 716 mmHg 33%
    06:00 +25°C° 0 mm 1 m/S 717 mmHg 33%
    07:00 +26°C° 0 mm 2 m/S 717 mmHg 33%
    08:00 +29°C° 0 mm 2 m/S 717 mmHg 28%
    09:00 +33°C° 0 mm 3 m/S 718 mmHg 23%
    10:00 +37°C° 0 mm 3 m/S 718 mmHg 18%
    11:00 +38°C° 0 mm 3 m/S 718 mmHg 16%
    12:00 +39°C° 0 mm 2 m/S 717 mmHg 14%
    13:00 +41°C° 0 mm 2 m/S 716 mmHg 12%
    14:00 +40°C° 0 mm 2 m/S 715 mmHg 12%
    15:00 +40°C° 0 mm 1 m/S 715 mmHg 12%
    16:00 +39°C° 0 mm 1 m/S 714 mmHg 13%
    17:00 +35°C° 0 mm 1 m/S 715 mmHg 16%
    18:00 +32°C° 0 mm 1 m/S 715 mmHg 19%
    19:00 +30°C° 0 mm 1 m/S 715 mmHg 22%
    20:00 +29°C° 0 mm 1 m/S 716 mmHg 23%
    21:00 +28°C° 0 mm 1 m/S 716 mmHg 25%
    22:00 +27°C° 0 mm 1 m/S 717 mmHg 26%
    23:00 +27°C° 0 mm 1 m/S 717 mmHg 27%

    übermorgen, 20 Juni, Mittwoch

    Zeit Temperatur Niederschläge Wind Luftdruck Luftfeuchtigkeit
    00:00 +26°C° 0 mm 1 m/S 716 mmHg 28%
    01:00 +26°C° 0 mm 1 m/S 716 mmHg 29%
    02:00 +25°C° 0 mm 1 m/S 716 mmHg 31%
    03:00 +24°C° 0 mm 1 m/S 716 mmHg 32%
    04:00 +24°C° 0 mm 1 m/S 716 mmHg 34%
    05:00 +24°C° 0 mm 1 m/S 716 mmHg 33%
    06:00 +23°C° 0 mm 0 m/S 717 mmHg 33%
    07:00 +24°C° 0 mm 0 m/S 718 mmHg 32%
    08:00 +28°C° 0 mm 0 m/S 718 mmHg 27%
    09:00 +31°C° 0 mm 0 m/S 719 mmHg 22%
    10:00 +37°C° 0 mm 1 m/S 719 mmHg 17%
    11:00 +39°C° 0 mm 1 m/S 718 mmHg 16%
    12:00 +39°C° 0 mm 1 m/S 717 mmHg 16%
    13:00 +40°C° 0 mm 2 m/S 717 mmHg 15%
    14:00 +39°C° 0 mm 1 m/S 716 mmHg 15%
    15:00 +39°C° 0 mm 1 m/S 716 mmHg 16%
    16:00 +37°C° 0 mm 1 m/S 715 mmHg 16%
    17:00 +35°C° 0 mm 1 m/S 716 mmHg 20%
    18:00 +32°C° 0 mm 1 m/S 716 mmHg 23%
    19:00 +30°C° 0 mm 1 m/S 716 mmHg 27%
    20:00 +29°C° 0 mm 1 m/S 717 mmHg 28%
    21:00 +28°C° 0 mm 1 m/S 717 mmHg 29%
    22:00 +28°C° 0 mm 1 m/S 718 mmHg 30%
    23:00 +27°C° 0 mm 1 m/S 718 mmHg 32%

    21 Juni, Donnerstag

    Zeit Temperatur Niederschläge Wind Luftdruck Luftfeuchtigkeit
    00:00 +25°C° 0 mm 0 m/S 717 mmHg 34%
    01:00 +25°C° 0 mm 0 m/S 717 mmHg 36%
    02:00 +24°C° 0 mm 0 m/S 717 mmHg 38%
    03:00 +24°C° 0 mm 0 m/S 717 mmHg 39%
    04:00 +25°C° 0 mm 1 m/S 717 mmHg 41%
    05:00 +26°C° 0 mm 1 m/S 718 mmHg 41%
    06:00 +24°C° 0 mm 0 m/S 718 mmHg 41%
    07:00 +25°C° 0 mm 0 m/S 719 mmHg 40%
    08:00 +28°C° 0 mm 0 m/S 719 mmHg 35%
    09:00 +32°C° 0 mm 0 m/S 720 mmHg 30%
    10:00 +35°C° 0 mm 0 m/S 720 mmHg 25%
    11:00 +36°C° 0 mm 0 m/S 719 mmHg 23%
    12:00 +40°C° 0 mm 1 m/S 718 mmHg 21%
    13:00 +42°C° 0 mm 1 m/S 717 mmHg 19%
    14:00 +40°C° 0 mm 1 m/S 717 mmHg 20%
    15:00 +39°C° 0 mm 1 m/S 717 mmHg 22%
    16:00 +36°C° 0 mm 1 m/S 716 mmHg 23%
    17:00 +34°C° 0 mm 1 m/S 717 mmHg 27%
    18:00 +32°C° 0 mm 1 m/S 717 mmHg 32%
    19:00 +30°C° 0 mm 1 m/S 717 mmHg 36%
    20:00 +29°C° 0 mm 1 m/S 718 mmHg 39%
    21:00 +28°C° 0 mm 1 m/S 718 mmHg 41%
    22:00 +27°C° 0 mm 1 m/S 718 mmHg 44%
    23:00 +27°C° 0 mm 1 m/S 718 mmHg 46%

    22 Juni, Freitag

    Zeit Temperatur Niederschläge Wind Luftdruck Luftfeuchtigkeit
    00:00 +24°C° 0 mm 0 m/S 718 mmHg 49%
    01:00 +23°C° 0 mm 0 m/S 717 mmHg 51%
    02:00 +23°C° 0 mm 0 m/S 717 mmHg 53%
    03:00 +22°C° 0 mm 0 m/S 717 mmHg 55%
    04:00 +22°C° 0 mm 0 m/S 718 mmHg 58%
    05:00 +23°C° 0 mm 0 m/S 718 mmHg 57%
    06:00 +23°C° 0 mm 0 m/S 719 mmHg 55%
    07:00 +24°C° 0 mm 0 m/S 719 mmHg 54%
    08:00 +28°C° 0 mm 0 m/S 720 mmHg 47%
    09:00 +31°C° 0 mm 0 m/S 720 mmHg 39%
    10:00 +37°C° 0 mm 1 m/S 720 mmHg 31%
    11:00 +39°C° 0 mm 1 m/S 719 mmHg 29%
    12:00 +39°C° 0 mm 1 m/S 718 mmHg 26%
    13:00 +40°C° 0 mm 1 m/S 717 mmHg 24%
    14:00 +37°C° 0 mm 1 m/S 717 mmHg 27%
    15:00 +36°C° 0 mm 1 m/S 716 mmHg 29%
    16:00 +34°C° 0 mm 1 m/S 716 mmHg 32%
    17:00 +33°C° 0 mm 1 m/S 717 mmHg 35%
    18:00 +32°C° 0 mm 1 m/S 717 mmHg 38%
    19:00 +30°C° 0 mm 1 m/S 718 mmHg 40%
    20:00 +29°C° 0 mm 1 m/S 718 mmHg 43%
    21:00 +28°C° 0 mm 1 m/S 718 mmHg 46%
    22:00 +28°C° 0 mm 1 m/S 718 mmHg 49%
    23:00 +25°C° 0 mm 0 m/S 717 mmHg 51%

    23 Juni, Samstag

    Zeit Temperatur Niederschläge Wind Luftdruck Luftfeuchtigkeit
    00:00 +24°C° 0 mm 0 m/S 717 mmHg 53%
    01:00 +24°C° 0 mm 0 m/S 717 mmHg 55%
    02:00 +23°C° 0 mm 0 m/S 717 mmHg 56%
    03:00 +23°C° 0 mm 0 m/S 717 mmHg 58%
    04:00 +23°C° 0 mm 0 m/S 717 mmHg 59%
    05:00 +23°C° 0 mm 0 m/S 718 mmHg 57%
    06:00 +24°C° 0 mm 0 m/S 718 mmHg 55%
    07:00 +25°C° 0 mm 0 m/S 719 mmHg 53%
    08:00 +28°C° 0 mm 0 m/S 719 mmHg 45%
    09:00 +32°C° 0 mm 0 m/S 719 mmHg 37%
    10:00 +37°C° 0 mm 1 m/S 720 mmHg 29%
    11:00 +39°C° 0 mm 1 m/S 719 mmHg 26%
    12:00 +40°C° 0 mm 1 m/S 718 mmHg 24%
    13:00 +41°C° 0 mm 1 m/S 717 mmHg 21%
    14:00 +40°C° 0 mm 1 m/S 716 mmHg 23%
    15:00 +37°C° 0 mm 1 m/S 716 mmHg 24%
    16:00 +36°C° 0 mm 1 m/S 716 mmHg 26%
    17:00 +34°C° 0 mm 1 m/S 716 mmHg 30%
    18:00 +32°C° 0 mm 1 m/S 716 mmHg 33%
    19:00 +30°C° 0 mm 1 m/S 716 mmHg 37%
    20:00 +29°C° 0 mm 1 m/S 716 mmHg 40%
    21:00 +29°C° 0 mm 1 m/S 717 mmHg 42%
    22:00 +28°C° 0 mm 1 m/S 717 mmHg 44%
    23:00 +27°C° 0 mm 1 m/S 716 mmHg 47%
    Mehr zeigen